KD0NNG Weather Reports


time (UTC)temp
C
wind
direction
speed
KPH
gust
KPH
rain 1hr
cm
rain 24hr
cm
rain mn
cm
humidity
%
barometer
mb
20260503013905 16 255 6.4 19.3 0.00 0.00 0.00 41 1010.1
20260503013402 16 248 6.4 19.3 0.00 0.00 0.00 41 1010.1
20260503012902 16 214 3.2 12.9 0.00 0.00 0.00 42 1010.0
20260503012401 16 276 3.2 8.0 0.00 0.00 0.00 44 1010.0
20260503012158 16 251 3.2 11.3 0.00 0.00 0.00 43 1010.0
20260503011401 16 217 3.2 11.3 0.00 0.00 0.00 43 1010.0
20260503010901 16 198 3.2 11.3 0.00 0.00 0.00 43 1010.1
20260503010401 17 221 3.2 11.3 0.00 0.00 0.00 43 1010.1
20260503005901 17 233 3.2 11.3 0.00 0.00 0.00 43 1010.1
20260503005401 17 237 4.8 12.9 0.00 0.00 0.00 43 1010.1
20260503004902 17 227 3.2 12.9 0.00 0.00 0.00 41 1010.1
20260503004402 17 199 3.2 12.9 0.00 0.00 0.00 41 1010.1
20260503003902 17 192 4.8 12.9 0.00 0.00 0.00 41 1010.3
20260503003736 17 265 4.8 11.3 0.00 0.00 0.00 41 1010.2
20260503002901 17 257 3.2 11.3 0.00 0.00 0.00 41 1010.3
20260503002402 17 232 3.2 11.3 0.00 0.00 0.00 41 1010.3
20260503001901 17 212 1.6 9.7 0.00 0.00 0.00 40 1010.4
20260503001401 17 236 3.2 14.5 0.00 0.00 0.00 39 1010.4
20260503000904 17 227 3.2 14.5 0.00 0.00 0.00 39 1010.4
20260503000404 17 275 1.6 4.8 0.00 0.00 0.00 38 1010.4
20260503000155 17 230 1.6 8.0 0.00 0.00 0.00 38 1010.4
20260502235404 17 263 3.2 8.0 0.00 0.00 0.00 38 1010.5
20260502234902 17 204 1.6 8.0 0.00 0.00 0.00 38 1010.5
20260502234411 17 193 1.6 8.0 0.00 0.00 0.00 39 1010.5
20260502233904 17 238 3.2 11.3 0.00 0.00 0.00 39 1010.5
20260502233403 17 218 3.2 11.3 0.00 0.00 0.00 39 1010.5
20260502233152 17 290 4.8 11.3 0.00 0.00 0.00 40 1010.7
20260502232400 17 306 3.2 11.3 0.00 0.00 0.00 39 1010.8
20260502231902 17 264 1.6 9.7 0.00 0.00 0.00 40 1011.0
20260502231402 17 294 4.8 16.1 0.00 0.00 0.00 38 1011.2
20260502230902 17 178 8.0 17.7 0.00 0.00 0.00 39 1011.1
20260502230401 17 336 6.4 17.7 0.00 0.00 0.00 37 1011.4
20260502225902 17 252 4.8 17.7 0.00 0.00 0.00 37 1011.2
20260502225648 17 227 4.8 12.9 0.00 0.00 0.00 37 1011.3
20260502224901 17 262 4.8 12.9 0.00 0.00 0.00 37 1011.3
20260502224401 17 268 4.8 14.5 0.00 0.00 0.00 37 1011.3
20260502224157 17 222 6.4 16.1 0.00 0.00 0.00 36 1011.3
20260502223401 17 275 8.0 16.1 0.00 0.00 0.00 36 1011.4
20260502222900 17 241 6.4 16.1 0.00 0.00 0.00 36 1011.3
20260502222403 17 228 4.8 11.3 0.00 0.00 0.00 37 1011.3
20260502221901 17 190 4.8 11.3 0.00 0.00 0.00 37 1011.4
20260502221401 17 255 6.4 17.7 0.00 0.00 0.00 38 1011.3
20260502220901 17 262 4.8 17.7 0.00 0.00 0.00 37 1011.4
20260502220813 17 279 4.8 17.7 0.00 0.00 0.00 37 1011.5
20260502215401 17 205 4.8 11.3 0.00 0.00 0.00 38 1011.5
20260502214901 17 218 4.8 12.9 0.00 0.00 0.00 38 1011.7
20260502214401 17 180 6.4 16.1 0.00 0.00 0.00 37 1011.7
20260502213901 17 231 6.4 19.3 0.00 0.00 0.00 36 1011.9
20260502213400 17 207 6.4 19.3 0.00 0.00 0.00 36 1012.0
20260502212902 17 227 6.4 16.1 0.00 0.00 0.00 37 1012.1
20260502212402 18 198 8.0 22.5 0.00 0.00 0.00 36 1012.1
20260502211901 18 154 9.7 22.5 0.00 0.00 0.00 37 1012.2
20260502211441 18 221 9.7 22.5 0.00 0.00 0.00 36 1012.4
20260502210401 18 242 9.7 25.7 0.00 0.00 0.00 36 1012.7
20260502210202 18 275 8.0 20.9 0.00 0.00 0.00 36 1012.8
20260502205706 18 206 9.7 25.7 0.00 0.00 0.00 34 1012.9
20260502204901 18 301 9.7 25.7 0.00 0.00 0.00 37 1013.1
20260502204401 18 211 6.4 17.7 0.00 0.00 0.00 36 1013.0
20260502203901 17 271 8.0 16.1 0.00 0.00 0.00 37 1013.2
20260502203706 17 268 8.0 22.5 0.00 0.00 0.00 36 1013.4
20260502202901 17 170 9.7 22.5 0.00 0.00 0.00 38 1013.3
20260502202403 17 193 9.7 19.3 0.00 0.00 0.00 36 1013.4
20260502201902 17 193 9.7 22.5 0.00 0.00 0.00 38 1013.6
20260502201659 17 235 11.3 22.5 0.00 0.00 0.00 37 1013.7
20260502200900 17 234 9.7 19.3 0.00 0.00 0.00 37 1013.8
20260502200401 17 274 8.0 17.7 0.00 0.00 0.00 38 1013.8
20260502195901 17 184 8.0 16.1 0.00 0.00 0.00 38 1013.9
20260502195402 17 255 8.0 16.1 0.00 0.00 0.00 37 1014.0
20260502194901 16 214 8.0 22.5 0.00 0.00 0.00 39 1014.1
20260502194650 16 188 8.0 22.5 0.00 0.00 0.00 37 1014.2
20260502193902 16 167 8.0 19.3 0.00 0.00 0.00 36 1014.2
20260502193401 16 178 9.7 19.3 0.00 0.00 0.00 38 1014.4
20260502192903 16 198 9.7 24.1 0.00 0.00 0.00 38 1014.4
20260502192653 16 217 8.0 24.1 0.00 0.00 0.00 39 1014.5
20260502191901 16 269 8.0 22.5 0.00 0.00 0.00 38 1014.6
20260502191400 16 178 8.0 22.5 0.00 0.00 0.00 38 1014.8
20260502190902 16 252 8.0 22.5 0.00 0.00 0.00 38 1014.9
20260502190402 16 223 8.0 20.9 0.00 0.00 0.00 37 1015.1
20260502185902 16 207 8.0 19.3 0.00 0.00 0.00 40 1015.1
20260502185401 15 246 8.0 22.5 0.00 0.00 0.00 39 1015.1
20260502184903 15 294 9.7 22.5 0.00 0.00 0.00 39 1015.4
20260502184657 16 155 8.0 20.9 0.00 0.00 0.00 38 1015.3
20260502183903 16 191 8.0 19.3 0.00 0.00 0.00 42 1015.4
20260502183508 15 196 8.0 17.7 0.00 0.00 0.00 39 1015.4
20260502182402 15 177 6.4 17.7 0.00 0.00 0.00 40 1015.6
20260502181901 15 207 6.4 17.7 0.00 0.00 0.00 39 1015.6
20260502181402 15 194 8.0 19.3 0.00 0.00 0.00 38 1015.6
20260502181153 15 215 8.0 19.3 0.00 0.00 0.00 41 1015.8
20260502180404 15 180 6.4 17.7 0.00 0.00 0.00 40 1015.8
20260502170402 13 228 6.4 16.1 0.00 0.00 0.00 38 1016.7
20260502163902 13 232 6.4 16.1 0.00 0.00 0.00 41 1017.0
20260502163402 13 264 8.0 17.7 0.00 0.00 0.00 42 1017.1
20260502162903 13 228 8.0 17.7 0.00 0.00 0.00 42 1017.2
20260502162404 13 169 6.4 17.7 0.00 0.00 0.00 42 1017.2
20260502161902 13 219 6.4 17.7 0.00 0.00 0.00 42 1017.2
20260502161402 13 300 8.0 16.1 0.00 0.00 0.00 43 1017.3
20260502160902 13 246 8.0 19.3 0.00 0.00 0.00 43 1017.4
20260502160402 13 240 8.0 20.9 0.00 0.00 0.00 42 1017.6
20260502151904 12 262 6.4 16.1 0.00 0.00 0.00 44 1017.9
20260502151403 12 309 4.8 16.1 0.00 0.00 0.00 43 1018.0
20260502150903 11 308 6.4 17.7 0.00 0.00 0.00 47 1018.0
20260502150400 11 288 8.0 17.7 0.00 0.00 0.00 46 1018.0
20260502130401 6 246 3.2 9.7 0.00 0.00 0.00 65 1018.5
20260502123403 5 208 1.6 6.4 0.00 0.00 0.00 71 1018.5
20260502123154 4 229 1.6 6.4 0.00 0.00 0.00 71 1018.4
20260502122403 3 238 0.0 3.2 0.00 0.00 0.00 73 1018.4
20260502121902 3 238 1.6 4.8 0.00 0.00 0.00 75 1018.4
20260502121402 3 238 0.0 4.8 0.00 0.00 0.00 77 1018.4
20260502120902 2 244 0.0 0.0 0.00 0.00 0.00 79 1018.4
20260502120653 2 271 0.0 0.0 0.00 0.00 0.00 82 1018.4
20260502115902 1 272 0.0 0.0 0.00 0.00 0.00 83 1018.3
20260502115402 1 273 0.0 0.0 0.00 0.00 0.00 84 1018.4
20260502114903 1 272 0.0 0.0 0.00 0.00 0.00 85 1018.4
20260502114404 0 273 0.0 0.0 0.00 0.00 0.00 86 1018.4
20260502113903 0 272 0.0 0.0 0.00 0.00 0.00 86 1018.5
20260502113402 0 273 0.0 0.0 0.00 0.00 0.00 86 1018.5
20260502112942 0 273 0.0 0.0 0.00 0.00 0.00 85 1018.3
20260502111903 0 272 0.0 0.0 0.00 0.00 0.00 85 1018.2
20260502111403 0 273 0.0 0.0 0.00 0.00 0.00 85 1018.2
20260502111151 0 273 0.0 0.0 0.00 0.00 0.00 85 1018.2
20260502110651 0 273 0.0 0.0 0.00 0.00 0.00 85 1018.2
20260502105904 0 273 0.0 0.0 0.00 0.00 0.00 85 1018.3
20260502105402 0 272 0.0 0.0 0.00 0.00 0.00 85 1018.2
20260502104901 0 273 0.0 0.0 0.00 0.00 0.00 85 1018.3
20260502104401 0 273 0.0 0.0 0.00 0.00 0.00 85 1018.2
20260502103901 0 273 0.0 0.0 0.00 0.00 0.00 85 1018.2
20260502103400 0 273 0.0 0.0 0.00 0.00 0.00 85 1018.4
20260502102903 0 272 0.0 0.0 0.00 0.00 0.00 85 1018.2
20260502102402 0 273 0.0 0.0 0.00 0.00 0.00 84 1018.2
20260502102151 0 272 0.0 0.0 0.00 0.00 0.00 84 1018.3
20260502101359 0 272 0.0 0.0 0.00 0.00 0.00 83 1018.3
20260502100851 0 273 0.0 0.0 0.00 0.00 0.00 83 1018.2
20260502100350 0 272 0.0 0.0 0.00 0.00 0.00 83 1018.3
20260502091347 1 273 0.0 1.6 0.00 0.00 0.00 80 1018.2
20260502090844 1 273 0.0 1.6 0.00 0.00 0.00 79 1018.0
20260502090342 1 273 0.0 1.6 0.00 0.00 0.00 79 1018.0
20260502071330 1 273 0.0 0.0 0.00 0.00 0.00 77 1018.2
20260502070830 1 272 0.0 0.0 0.00 0.00 0.00 77 1018.2
20260502070330 1 272 0.0 0.0 0.00 0.00 0.00 77 1018.3
20260502065830 2 273 0.0 0.0 0.00 0.00 0.00 77 1018.3
20260502065336 2 273 0.0 0.0 0.00 0.00 0.00 78 1018.3
20260502064833 2 273 0.0 0.0 0.00 0.00 0.00 78 1018.3
20260502064331 2 273 0.0 0.0 0.00 0.00 0.00 78 1018.3
20260502063830 2 272 0.0 0.0 0.00 0.00 0.00 78 1018.4
20260502063328 2 273 0.0 0.0 0.00 0.00 0.00 78 1018.3
20260502062830 2 273 0.0 0.0 0.00 0.00 0.00 78 1018.4
20260502062331 2 273 0.0 0.0 0.00 0.00 0.00 79 1018.4
20260502061825 2 272 0.0 0.0 0.00 0.00 0.00 79 1018.4
20260502061315 2 273 0.0 0.0 0.00 0.00 0.00 79 1018.4
20260502060815 2 273 0.0 0.0 0.00 0.00 0.00 78 1018.4
20260502060315 2 272 0.0 0.0 0.00 0.00 0.00 79 1018.4
20260502055815 2 273 0.0 0.0 0.00 0.00 0.00 78 1018.5
20260502055313 2 273 0.0 0.0 0.00 0.00 0.00 77 1018.5
20260502055112 2 272 0.0 0.0 0.00 0.00 0.00 77 1018.6
20260502054310 2 273 0.0 0.0 0.00 0.00 0.00 77 1018.5
20260502053810 2 272 0.0 1.6 0.00 0.00 0.00 77 1018.5
20260502053309 2 273 0.0 1.6 0.00 0.00 0.00 77 1018.5
20260502052809 2 273 0.0 1.6 0.00 0.00 0.00 78 1018.6
20260502052307 2 273 0.0 1.6 0.00 0.00 0.00 78 1018.5
20260502051805 2 272 0.0 1.6 0.00 0.00 0.00 79 1018.5
20260502051302 3 272 0.0 1.6 0.00 0.00 0.00 79 1018.5
20260502050803 3 273 0.0 1.6 0.00 0.00 0.00 78 1018.4
20260502050301 3 272 0.0 1.6 0.00 0.00 0.00 77 1018.5
20260502045802 3 273 0.0 1.6 0.00 0.00 0.00 76 1018.5
20260502045305 3 272 0.0 1.6 0.00 0.00 0.00 75 1018.4
20260502044758 3 273 0.0 1.6 0.00 0.00 0.00 74 1018.4
20260502044556 3 273 0.0 1.6 0.00 0.00 0.00 73 1018.5
20260502043758 3 273 0.0 1.6 0.00 0.00 0.00 73 1018.4
20260502043258 3 272 0.0 1.6 0.00 0.00 0.00 73 1018.4
20260502042755 3 272 0.0 1.6 0.00 0.00 0.00 73 1018.4
20260502042253 3 273 0.0 1.6 0.00 0.00 0.00 74 1018.4
20260502041750 3 273 0.0 0.0 0.00 0.00 0.00 74 1018.4
20260502041249 3 273 0.0 1.6 0.00 0.00 0.00 73 1018.4
20260502040747 4 273 0.0 1.6 0.00 0.00 0.00 73 1018.4
20260502040245 4 273 0.0 1.6 0.00 0.00 0.00 72 1018.4
20260502035742 4 272 0.0 1.6 0.00 0.00 0.00 71 1018.5
20260502035243 4 272 0.0 3.2 0.00 0.00 0.00 69 1018.4
20260502034743 5 273 0.0 3.2 0.00 0.00 0.00 68 1018.5
20260502034241 5 272 0.0 1.6 0.00 0.00 0.00 66 1018.5
20260502033742 5 273 0.0 1.6 0.00 0.00 0.00 67 1018.5
20260502033241 5 272 0.0 1.6 0.00 0.00 0.00 67 1018.5
20260502032739 5 273 0.0 1.6 0.00 0.00 0.00 67 1018.5
20260502032236 5 273 0.0 1.6 0.00 0.00 0.00 67 1018.6
20260502031736 6 273 0.0 1.6 0.00 0.00 0.00 66 1018.7
20260502031529 6 272 0.0 1.6 0.00 0.00 0.00 64 1018.5
20260502030735 6 273 0.0 1.6 0.00 0.00 0.00 64 1018.5
20260502030526 6 273 0.0 1.6 0.00 0.00 0.00 63 1018.5
20260502025731 6 273 0.0 0.0 0.00 0.00 0.00 64 1018.5
20260502025230 6 272 0.0 1.6 0.00 0.00 0.00 61 1018.5
20260502024730 6 273 0.0 1.6 0.00 0.00 0.00 60 1018.6
20260502024229 7 273 0.0 1.6 0.00 0.00 0.00 57 1018.6
20260502023729 7 273 0.0 1.6 0.00 0.00 0.00 56 1018.6
20260502023230 7 272 0.0 1.6 0.00 0.00 0.00 56 1018.6
20260502022730 7 272 0.0 1.6 0.00 0.00 0.00 54 1018.6
20260502022229 7 273 0.0 1.6 0.00 0.00 0.00 53 1018.6
20260502021730 8 272 0.0 1.6 0.00 0.00 0.00 51 1018.5
20260502021230 8 273 0.0 1.6 0.00 0.00 0.00 49 1018.5
20260502020725 8 273 0.0 1.6 0.00 0.00 0.00 46 1018.5
20260502020218 8 273 0.0 1.6 0.00 0.00 0.00 45 1018.4
20260502015712 8 273 0.0 1.6 0.00 0.00 0.00 45 1018.3
20260502015213 9 273 0.0 1.6 0.00 0.00 0.00 45 1018.3
20260502015011 9 273 0.0 1.6 0.00 0.00 0.00 46 1018.2